Regional Weather Roundup
Issued by NWS

Home | Current Version | Previous Version | Graphics & Text | Print | Product List | Glossary On
Versions: 1 2 3 4 5 6 7 8 9 10 11 12 13 14 15 16 17 18 19 20 21 22 23 24 25 26 27 28 29 30 31 32 33 34 35 36 37 38 39 40 41 42 43 44 45 46 47 48 49 50
000
ASUS43 KBIS 260231
RWRND
NORTH DAKOTA REGIONAL WEATHER ROUNDUP
NATIONAL WEATHER SERVICE EASTERN NORTH DAKOTA/GRAND FORKS ND
900 PM CDT SUN JUN 25 2017

  NOTE: "FAIR" INDICATES FEW OR NO CLOUDS BELOW 12,000 FEET WITH NO
  SIGNIFICANT WEATHER AND/OR OBSTRUCTIONS TO VISIBILITY.

NDZ001>003-009>011-017-260300-
...NORTHWEST NORTH DAKOTA...

CITY           SKY/WX    TMP DP  RH WIND       PRES   REMARKS
WILLISTON      FAIR      70  43  37 NE10      30.22S
MINOT          FAIR      62  41  46 NE7       30.22S
MINOT AFB      FAIR      64  38  39 NE8       30.21S
$$

NDZ018>021-031>035-040>046-260300-
...SOUTHWEST NORTH DAKOTA...

CITY           SKY/WX    TMP DP  RH WIND       PRES   REMARKS
BISMARCK       FAIR      66  45  46 NE10      30.22R
DICKINSON      FAIR      65  37  35 NE10      30.21S
GARRISON         N/A     62  43  49 NE6       30.22S
HETTINGER      FAIR      68  38  33 NE9       30.23S
$$

NDZ004>008-012>016-024-026-027-054-260300-
...NORTHEAST NORTH DAKOTA...

CITY           SKY/WX    TMP DP  RH WIND       PRES   REMARKS
GRAND FORKS    FAIR      58  46  64 NE7       30.18R
GRAND FORKS AF FAIR      58  42  54 NE8       30.19S
DEVILS LAKE    FAIR      60  37  42 N8        30.22R
$$

NDZ022-023-025-028>030-036>039-047>053-260300-
...SOUTHEAST NORTH DAKOTA...

CITY           SKY/WX    TMP DP  RH WIND       PRES   REMARKS
JAMESTOWN      FAIR      61  40  45 N10       30.20S
FARGO          FAIR      63  41  44 N10       30.17R
WAHPETON       CLOUDY    59  46  63 NW5       30.17S
$$



USA.gov is the U.S. government's official web portal to all federal, state and local government web resources and services.